| time (UTC) | temp F | wind direction | speed MPH | gust MPH | rain 1hr in | rain 24hr in | rain mn in | humidity % | barometer mb |
| 20260901224522 | 92 | 121 | 5.0 | 0.0 | 0.00 | 0.00 | 0.00 | 23 | 1002.1 |
| 20260901223028 | 92 | 165 | 5.0 | 0.0 | 0.00 | 0.00 | 0.00 | 24 | 1002.2 |
| 20260901221555 | 93 | 220 | 7.0 | 0.0 | 0.00 | 0.00 | 0.00 | 23 | 1002.1 |
| 20260901220024 | 94 | 189 | 6.0 | 0.0 | 0.00 | 0.00 | 0.00 | 23 | 1002.0 |
| 20260901214526 | 93 | 185 | 6.0 | 0.0 | 0.00 | 0.00 | 0.00 | 23 | 1002.0 |
| 20260901213016 | 92 | 223 | 5.0 | 0.0 | 0.00 | 0.00 | 0.00 | 24 | 1002.3 |
| 20260901211538 | 91 | 236 | 6.0 | 0.0 | 0.00 | 0.00 | 0.00 | 25 | 1002.4 |
| 20260901210050 | 91 | 282 | 8.0 | 0.0 | 0.00 | 0.00 | 0.00 | 25 | 1002.7 |
| 20260901204558 | 91 | 209 | 8.0 | 0.0 | 0.00 | 0.00 | 0.00 | 25 | 1002.9 |
| 20260901203009 | 91 | 222 | 7.0 | 0.0 | 0.00 | 0.00 | 0.00 | 25 | 1003.3 |
| 20260901201523 | 91 | 213 | 7.0 | 0.0 | 0.00 | 0.00 | 0.00 | 25 | 1003.5 |
| 20260901200010 | 90 | 255 | 9.0 | 0.0 | 0.00 | 0.00 | 0.00 | 25 | 1003.7 |
| 20260901194516 | 90 | 193 | 11.0 | 0.0 | 0.00 | 0.00 | 0.00 | 26 | 1003.9 |
| 20260901193051 | 91 | 229 | 11.0 | 0.0 | 0.00 | 0.00 | 0.00 | 25 | 1004.0 |
| 20260901191536 | 90 | 207 | 10.0 | 0.0 | 0.00 | 0.00 | 0.00 | 27 | 1004.0 |
| 20260901190058 | 90 | 118 | 10.0 | 0.0 | 0.00 | 0.00 | 0.00 | 28 | 1003.6 |
| 20260901184603 | 90 | 213 | 8.0 | 0.0 | 0.00 | 0.00 | 0.00 | 30 | 1003.8 |
| 20260901183054 | 89 | 206 | 8.0 | 0.0 | 0.00 | 0.00 | 0.00 | 34 | 1004.0 |
| 20260901181558 | 88 | 229 | 7.0 | 0.0 | 0.00 | 0.00 | 0.00 | 35 | 1004.2 |
| 20260901180003 | 87 | 237 | 6.0 | 0.0 | 0.00 | 0.00 | 0.00 | 37 | 1004.3 |
| 20260901174509 | 86 | 199 | 7.0 | 0.0 | 0.00 | 0.00 | 0.00 | 36 | 1004.5 |
| 20260901173037 | 85 | 206 | 8.0 | 0.0 | 0.00 | 0.00 | 0.00 | 41 | 1004.9 |
| 20260901171509 | 84 | 168 | 6.0 | 0.0 | 0.00 | 0.00 | 0.00 | 41 | 1004.7 |
| 20260901170033 | 83 | 179 | 6.0 | 0.0 | 0.00 | 0.00 | 0.00 | 44 | 1005.1 |
| 20260901164539 | 82 | 200 | 6.0 | 0.0 | 0.00 | 0.00 | 0.00 | 47 | 1005.2 |
| 20260901163044 | 81 | 161 | 6.0 | 0.0 | 0.00 | 0.00 | 0.00 | 47 | 1005.4 |
| 20260901161522 | 80 | 216 | 7.0 | 0.0 | 0.00 | 0.00 | 0.00 | 47 | 1005.9 |
| 20260901160046 | 79 | 205 | 6.0 | 0.0 | 0.00 | 0.00 | 0.00 | 49 | 1005.5 |
| 20260901154530 | 78 | 166 | 4.0 | 0.0 | 0.00 | 0.00 | 0.00 | 52 | 1005.7 |
| 20260901153051 | 77 | 179 | 3.0 | 0.0 | 0.00 | 0.00 | 0.00 | 53 | 1006.1 |
| 20260901151545 | 76 | 147 | 3.0 | 0.0 | 0.00 | 0.00 | 0.00 | 58 | 1006.3 |
| 20260901150048 | 74 | 192 | 4.0 | 0.0 | 0.00 | 0.00 | 0.00 | 62 | 1006.2 |
| 20260901144551 | 73 | 182 | 4.0 | 0.0 | 0.00 | 0.00 | 0.00 | 65 | 1006.4 |
| 20260901143059 | 71 | 161 | 3.0 | 0.0 | 0.00 | 0.00 | 0.00 | 67 | 1006.3 |
| 20260901141507 | 70 | 207 | 4.0 | 0.0 | 0.00 | 0.00 | 0.00 | 71 | 1006.7 |
| 20260901140015 | 68 | 206 | 3.0 | 0.0 | 0.00 | 0.00 | 0.00 | 73 | 1006.3 |
| 20260901134556 | 67 | 196 | 2.0 | 0.0 | 0.00 | 0.00 | 0.00 | 75 | 1006.1 |
| 20260901133040 | 66 | 178 | 1.0 | 0.0 | 0.00 | 0.00 | 0.00 | 78 | 1006.4 |
| 20260901131515 | 65 | 189 | 2.0 | 0.0 | 0.00 | 0.00 | 0.00 | 79 | 1006.2 |
| 20260901130047 | 64 | 182 | 4.0 | 0.0 | 0.00 | 0.00 | 0.00 | 81 | 1005.8 |
| 20260901124602 | 64 | 247 | 2.0 | 0.0 | 0.00 | 0.00 | 0.00 | 84 | 1005.5 |
| 20260901123004 | 64 | 144 | 2.0 | 0.0 | 0.00 | 0.00 | 0.00 | 85 | 1005.2 |
| 20260901121513 | 63 | 247 | 3.0 | 0.0 | 0.00 | 0.00 | 0.00 | 86 | 1005.4 |
| 20260901120014 | 63 | 265 | 2.0 | 0.0 | 0.00 | 0.00 | 0.00 | 86 | 1004.7 |
| 20260901114541 | 63 | 265 | 2.0 | 0.0 | 0.00 | 0.00 | 0.00 | 86 | 1004.7 |
| 20260901113130 | 63 | 265 | 1.0 | 0.0 | 0.00 | 0.00 | 0.00 | 86 | 1004.7 |
| 20260901111524 | 63 | 267 | 2.0 | 0.0 | 0.00 | 0.00 | 0.00 | 86 | 1004.8 |
| 20260901110032 | 63 | 265 | 2.0 | 0.0 | 0.00 | 0.00 | 0.00 | 86 | 1004.1 |
| 20260901104533 | 64 | 248 | 2.0 | 0.0 | 0.00 | 0.00 | 0.00 | 86 | 1004.2 |
| 20260901103058 | 64 | 264 | 2.0 | 0.0 | 0.00 | 0.00 | 0.00 | 86 | 1004.3 |
| 20260901101516 | 64 | 288 | 1.0 | 0.0 | 0.00 | 0.00 | 0.00 | 85 | 1004.3 |
| 20260901100045 | 64 | 288 | 1.0 | 0.0 | 0.00 | 0.00 | 0.00 | 84 | 1004.3 |
| 20260901094600 | 64 | 288 | 1.0 | 0.0 | 0.00 | 0.00 | 0.00 | 84 | 1004.4 |
| 20260901094509 | 64 | 288 | 1.0 | 0.0 | 0.00 | 0.00 | 0.00 | 83 | 1004.4 |
| 20260901093036 | 65 | 288 | 2.0 | 0.0 | 0.00 | 0.00 | 0.00 | 82 | 1004.5 |
| 20260901091542 | 65 | 288 | 2.0 | 0.0 | 0.00 | 0.00 | 0.00 | 82 | 1004.5 |
| 20260901090013 | 65 | 310 | 1.0 | 0.0 | 0.00 | 0.00 | 0.00 | 82 | 1004.4 |
| 20260901084524 | 65 | 316 | 4.0 | 0.0 | 0.00 | 0.00 | 0.00 | 82 | 1004.8 |
| 20260901083035 | 65 | 275 | 6.0 | 0.0 | 0.00 | 0.00 | 0.00 | 82 | 1005.1 |
| 20260901081540 | 65 | 288 | 10.0 | 0.0 | 0.00 | 0.00 | 0.00 | 83 | 1005.3 |
| 20260901080004 | 65 | 284 | 9.0 | 0.0 | 0.00 | 0.00 | 0.00 | 83 | 1005.7 |
| 20260901074508 | 66 | 272 | 13.0 | 0.0 | 0.00 | 0.00 | 0.00 | 81 | 1005.7 |
| 20260901073011 | 67 | 286 | 12.0 | 0.0 | 0.00 | 0.00 | 0.00 | 78 | 1006.0 |
| 20260901071530 | 69 | 253 | 7.0 | 0.0 | 0.00 | 0.00 | 0.00 | 73 | 1005.6 |
| 20260901070059 | 71 | 260 | 8.0 | 0.0 | 0.00 | 0.00 | 0.00 | 69 | 1005.1 |
| 20260901064556 | 72 | 222 | 7.0 | 0.0 | 0.00 | 0.00 | 0.00 | 61 | 1005.2 |
| 20260901063058 | 71 | 250 | 6.0 | 0.0 | 0.00 | 0.00 | 0.00 | 65 | 1004.8 |
| 20260901061517 | 73 | 261 | 6.0 | 0.0 | 0.00 | 0.00 | 0.00 | 60 | 1004.0 |
| 20260901060100 | 73 | 196 | 5.0 | 0.0 | 0.00 | 0.00 | 0.00 | 57 | 1004.0 |
| 20260901054505 | 72 | 203 | 5.0 | 0.0 | 0.00 | 0.00 | 0.00 | 56 | 1003.9 |
| 20260901053045 | 71 | 236 | 3.0 | 0.0 | 0.00 | 0.00 | 0.00 | 64 | 1003.9 |
| 20260901051551 | 70 | 267 | 5.0 | 0.0 | 0.00 | 0.00 | 0.00 | 65 | 1003.9 |
| 20260901050013 | 70 | 206 | 4.0 | 0.0 | 0.00 | 0.00 | 0.00 | 66 | 1004.0 |
| 20260901044520 | 70 | 222 | 2.0 | 0.0 | 0.00 | 0.00 | 0.00 | 68 | 1004.1 |
| 20260901043051 | 71 | 171 | 2.0 | 0.0 | 0.00 | 0.00 | 0.00 | 65 | 1003.9 |
| 20260901041552 | 71 | 171 | 4.0 | 0.0 | 0.00 | 0.00 | 0.00 | 61 | 1003.6 |
| 20260901040015 | 71 | 183 | 5.0 | 0.0 | 0.00 | 0.00 | 0.00 | 63 | 1005.2 |
| 20260901034526 | 72 | 195 | 10.0 | 0.0 | 0.00 | 0.00 | 0.00 | 61 | 1006.8 |
| 20260901033038 | 74 | 202 | 15.0 | 0.0 | 0.00 | 0.00 | 0.00 | 56 | 1007.1 |
| 20260901031544 | 74 | 212 | 3.0 | 0.0 | 0.00 | 0.00 | 0.00 | 65 | 1006.8 |
| 20260901030038 | 74 | 229 | 3.0 | 0.0 | 0.00 | 0.00 | 0.00 | 65 | 1007.6 |
| 20260901024546 | 74 | 52 | 1.0 | 0.0 | 0.00 | 0.00 | 0.00 | 65 | 1006.9 |
| 20260901023016 | 75 | 52 | 4.0 | 0.0 | 0.00 | 0.00 | 0.00 | 63 | 1006.1 |
| 20260901021607 | 77 | 30 | 3.0 | 0.0 | 0.00 | 0.00 | 0.00 | 61 | 1005.9 |
| 20260901020112 | 79 | 66 | 7.0 | 0.0 | 0.00 | 0.00 | 0.00 | 54 | 1006.0 |
| 20260901014558 | 81 | 109 | 1.0 | 0.0 | 0.00 | 0.00 | 0.00 | 52 | 1005.1 |
| 20260901013028 | 82 | 162 | 1.0 | 0.0 | 0.00 | 0.00 | 0.00 | 49 | 1004.3 |
| 20260901011541 | 83 | 182 | 2.0 | 0.0 | 0.00 | 0.00 | 0.00 | 48 | 1004.1 |
| 20260901010040 | 84 | 155 | 1.0 | 0.0 | 0.00 | 0.00 | 0.00 | 46 | 1004.1 |
| 20260901004528 | 85 | 120 | 1.0 | 0.0 | 0.00 | 0.00 | 0.00 | 45 | 1003.7 |
| 20260901003044 | 86 | 135 | 2.0 | 0.0 | 0.00 | 0.00 | 0.00 | 44 | 1003.7 |
| 20260901001557 | 87 | 142 | 3.0 | 0.0 | 0.00 | 0.00 | 0.00 | 42 | 1003.1 |
| 20260901000002 | 88 | 130 | 2.0 | 0.0 | 0.00 | 0.00 | 0.00 | 41 | 1003.2 |
| 20260831234510 | 89 | 134 | 3.0 | 0.0 | 0.00 | 0.00 | 0.00 | 40 | 1003.2 |
| 20260831233038 | 90 | 110 | 4.0 | 0.0 | 0.00 | 0.00 | 0.00 | 36 | 1003.1 |
| 20260831231544 | 92 | 79 | 5.0 | 0.0 | 0.00 | 0.00 | 0.00 | 31 | 1002.8 |
| 20260831230052 | 95 | 138 | 5.0 | 0.0 | 0.00 | 0.00 | 0.00 | 27 | 1002.3 |